Time,TemperatureF,DewpointF,PressureIn,WindDirection,WindDirectionDegrees,WindSpeedMPH,WindSpeedGustMPH,Humidity,HourlyPrecipIn,Conditions,Clouds,dailyrainin,SoftwareType,DateUTC
2013-05-07 00:03:00,42.0,41.0,30.12,South,186,0.0,2.0,97,0.00,,,0.00,,2013-05-07 04:03:00,
2013-05-07 00:12:00,42.0,41.0,30.12,South,186,0.0,2.0,97,0.00,,,0.00,,2013-05-07 04:12:00,
2013-05-07 00:23:00,42.0,41.0,30.12,SW,231,0.0,5.0,97,0.00,,,0.00,,2013-05-07 04:23:00,
2013-05-07 00:33:00,42.0,41.0,30.12,SSE,163,0.0,4.0,97,0.00,,,0.00,,2013-05-07 04:33:00,
2013-05-07 00:42:00,42.0,41.0,30.12,SSE,163,0.0,4.0,97,0.00,,,0.00,,2013-05-07 04:42:00,
2013-05-07 00:53:00,42.0,41.0,30.11,SSW,201,0.0,3.0,97,0.00,,,0.00,,2013-05-07 04:53:00,
2013-05-07 01:02:00,42.0,41.0,30.11,SSW,193,0.0,5.0,97,0.00,,,0.00,,2013-05-07 05:02:00,
2013-05-07 01:12:00,42.0,41.0,30.11,SSW,193,0.0,5.0,97,0.00,,,0.00,,2013-05-07 05:12:00,
2013-05-07 01:22:00,42.0,41.0,30.11,South,171,0.0,4.0,97,0.00,,,0.00,,2013-05-07 05:22:00,
2013-05-07 01:32:00,42.0,41.0,30.11,South,175,0.0,4.0,98,0.00,,,0.00,,2013-05-07 05:32:00,
2013-05-07 01:42:00,42.0,41.0,30.11,South,175,0.0,4.0,98,0.00,,,0.00,,2013-05-07 05:42:00,
2013-05-07 01:52:00,43.0,42.0,30.11,SSW,195,0.0,5.0,98,0.00,,,0.00,,2013-05-07 05:52:00,
2013-05-07 02:02:00,43.0,42.0,30.11,SW,218,1.0,3.0,98,0.00,,,0.00,,2013-05-07 06:02:00,
2013-05-07 02:12:00,43.0,42.0,30.11,SW,218,1.0,3.0,98,0.00,,,0.00,,2013-05-07 06:12:00,
2013-05-07 02:22:00,43.0,42.0,30.10,SSW,201,0.0,6.0,98,0.00,,,0.00,,2013-05-07 06:22:00,
2013-05-07 02:32:00,43.0,42.0,30.10,SSW,207,0.0,5.0,98,0.00,,,0.00,,2013-05-07 06:32:00,
2013-05-07 02:42:00,43.0,42.0,30.10,SSW,207,0.0,5.0,98,0.00,,,0.00,,2013-05-07 06:42:00,
2013-05-07 02:52:00,43.0,42.0,30.10,SSW,196,0.0,3.0,98,0.00,,,0.00,,2013-05-07 06:52:00,
2013-05-07 03:02:00,43.0,42.0,30.10,East,88,0.0,3.0,98,0.00,,,0.00,,2013-05-07 07:02:00,
2013-05-07 03:11:00,43.0,42.0,30.10,East,88,0.0,3.0,98,0.00,,,0.00,,2013-05-07 07:11:00,
2013-05-07 03:22:00,43.0,42.0,30.09,ESE,119,0.0,1.0,98,0.00,,,0.00,,2013-05-07 07:22:00,
2013-05-07 03:32:00,43.0,42.0,30.09,ESE,119,0.0,1.0,98,0.00,,,0.00,,2013-05-07 07:32:00,
2013-05-07 03:42:00,43.0,42.0,30.09,ESE,119,0.0,1.0,98,0.00,,,0.00,,2013-05-07 07:42:00,
2013-05-07 03:52:00,43.0,42.0,30.09,WSW,250,0.0,1.0,98,0.00,,,0.00,,2013-05-07 07:52:00,
2013-05-07 04:02:00,42.0,41.0,30.09,ESE,106,0.0,2.0,98,0.00,,,0.00,,2013-05-07 08:02:00,
2013-05-07 04:11:00,42.0,41.0,30.09,ESE,106,0.0,2.0,98,0.00,,,0.00,,2013-05-07 08:11:00,
2013-05-07 04:22:00,42.0,41.0,30.09,ESE,113,0.0,2.0,98,0.00,,,0.00,,2013-05-07 08:22:00,
2013-05-07 04:32:00,42.0,41.0,30.09,SSW,211,0.0,3.0,98,0.00,,,0.00,,2013-05-07 08:32:00,
2013-05-07 04:42:00,42.0,41.0,30.09,SSW,211,0.0,3.0,98,0.00,,,0.00,,2013-05-07 08:42:00,
2013-05-07 04:52:00,42.0,41.0,30.09,South,182,0.0,4.0,98,0.00,,,0.00,,2013-05-07 08:52:00,
2013-05-07 05:01:00,42.0,41.0,30.09,South,182,0.0,0.0,98,0.00,,,0.00,,2013-05-07 09:01:00,
2013-05-07 05:11:00,42.0,41.0,30.09,South,182,0.0,0.0,98,0.00,,,0.00,,2013-05-07 09:11:00,
2013-05-07 05:22:00,42.0,41.0,30.09,SSW,198,0.0,2.0,98,0.00,,,0.00,,2013-05-07 09:22:00,
2013-05-07 05:33:00,42.0,41.0,30.09,South,189,0.0,3.0,98,0.00,,,0.00,,2013-05-07 09:33:00,
2013-05-07 05:42:00,42.0,41.0,30.09,South,189,0.0,3.0,98,0.00,,,0.00,,2013-05-07 09:42:00,
2013-05-07 05:52:00,43.0,42.0,30.09,South,177,0.0,4.0,98,0.00,,,0.00,,2013-05-07 09:52:00,
2013-05-07 06:03:00,42.0,41.0,30.09,South,175,0.0,7.0,98,0.00,,,0.00,,2013-05-07 10:03:00,
2013-05-07 06:12:00,42.0,41.0,30.09,South,175,0.0,7.0,98,0.00,,,0.00,,2013-05-07 10:12:00,
2013-05-07 06:23:00,43.0,42.0,30.09,South,191,0.0,3.0,98,0.00,,,0.00,,2013-05-07 10:23:00,
2013-05-07 06:32:00,43.0,42.0,30.10,SE,144,1.0,4.0,98,0.00,,,0.00,,2013-05-07 10:32:00,
2013-05-07 06:42:00,43.0,42.0,30.10,SSE,168,0.0,1.0,98,0.00,,,0.00,,2013-05-07 10:42:00,
2013-05-07 06:52:00,43.0,42.0,30.10,SSE,168,0.0,1.0,98,0.00,,,0.00,,2013-05-07 10:52:00,
2013-05-07 07:02:00,43.0,43.0,30.10,SE,141,1.0,4.0,99,0.00,,,0.00,,2013-05-07 11:02:00,
2013-05-07 07:12:00,43.0,43.0,30.10,SE,141,1.0,4.0,99,0.00,,,0.00,,2013-05-07 11:12:00,
2013-05-07 07:22:00,43.0,42.0,30.10,SSW,197,1.0,5.0,98,0.00,,,0.00,,2013-05-07 11:22:00,
2013-05-07 07:32:00,44.0,43.0,30.10,SSW,200,0.0,3.0,98,0.00,,,0.00,,2013-05-07 11:32:00,
2013-05-07 07:42:00,44.0,43.0,30.10,SSW,200,0.0,3.0,98,0.00,,,0.00,,2013-05-07 11:42:00,
2013-05-07 07:52:00,44.0,43.0,30.11,SW,219,1.0,6.0,98,0.00,,,0.00,,2013-05-07 11:52:00,
2013-05-07 08:02:00,44.0,44.0,30.11,South,191,0.0,5.0,99,0.00,,,0.00,,2013-05-07 12:02:00,
2013-05-07 08:11:00,44.0,44.0,30.11,South,191,0.0,5.0,99,0.00,,,0.00,,2013-05-07 12:11:00,
2013-05-07 08:22:00,45.0,45.0,30.11,SE,135,0.0,5.0,99,0.00,,,0.00,,2013-05-07 12:22:00,
2013-05-07 08:32:00,45.0,45.0,30.11,SSE,163,0.0,5.0,99,0.00,,,0.00,,2013-05-07 12:32:00,
2013-05-07 08:42:00,45.0,45.0,30.11,SSE,163,0.0,5.0,99,0.00,,,0.00,,2013-05-07 12:42:00,
2013-05-07 08:52:00,45.0,45.0,30.11,SSW,200,1.0,4.0,99,0.00,,,0.00,,2013-05-07 12:52:00,
2013-05-07 09:02:00,46.0,45.0,30.11,SE,145,0.0,7.0,98,0.00,,,0.00,,2013-05-07 13:02:00,
2013-05-07 09:11:00,46.0,45.0,30.11,SE,145,0.0,7.0,98,0.00,,,0.00,,2013-05-07 13:11:00,
2013-05-07 09:22:00,47.0,46.0,30.11,SW,214,1.0,5.0,98,0.00,,,0.00,,2013-05-07 13:22:00,
2013-05-07 09:32:00,47.0,46.0,30.11,SSW,194,0.0,5.0,98,0.00,,,0.00,,2013-05-07 13:32:00,
2013-05-07 09:42:00,47.0,46.0,30.11,SSW,194,0.0,5.0,98,0.00,,,0.00,,2013-05-07 13:42:00,
2013-05-07 09:52:00,48.0,47.0,30.11,SE,125,0.0,6.0,97,0.00,,,0.00,,2013-05-07 13:52:00,
2013-05-07 10:02:00,48.0,47.0,30.11,NE,47,0.0,6.0,96,0.00,,,0.00,,2013-05-07 14:02:00,
2013-05-07 10:11:00,48.0,47.0,30.11,NE,47,0.0,6.0,96,0.00,,,0.00,,2013-05-07 14:11:00,
2013-05-07 10:21:00,48.0,46.0,30.11,ENE,63,2.0,5.0,93,0.00,,,0.00,,2013-05-07 14:21:00,
2013-05-07 10:32:00,49.0,47.0,30.11,NE,55,2.0,8.0,92,0.00,,,0.00,,2013-05-07 14:32:00,
2013-05-07 10:42:00,49.0,47.0,30.11,NE,55,2.0,8.0,92,0.00,,,0.00,,2013-05-07 14:42:00,
2013-05-07 10:52:00,49.0,47.0,30.11,ENE,57,1.0,5.0,93,0.00,,,0.00,,2013-05-07 14:52:00,
2013-05-07 11:01:00,49.0,47.0,30.11,ENE,59,1.0,6.0,93,0.00,,,0.00,,2013-05-07 15:01:00,
2013-05-07 11:12:00,49.0,47.0,30.11,ENE,59,1.0,6.0,93,0.00,,,0.00,,2013-05-07 15:12:00,
2013-05-07 11:21:00,50.0,47.0,30.11,NE,55,2.0,6.0,91,0.00,,,0.00,,2013-05-07 15:21:00,
2013-05-07 11:33:00,52.0,49.0,30.10,East,96,1.0,5.0,90,0.00,,,0.00,,2013-05-07 15:33:00,
2013-05-07 11:42:00,52.0,49.0,30.10,East,96,1.0,5.0,90,0.00,,,0.00,,2013-05-07 15:42:00,
2013-05-07 11:53:00,52.0,49.0,30.10,East,96,1.0,5.0,90,0.00,,,0.00,,2013-05-07 15:53:00,
2013-05-07 12:03:00,55.0,50.0,30.09,NE,34,2.0,4.0,84,0.00,,,0.00,,2013-05-07 16:03:00,
2013-05-07 12:12:00,55.0,50.0,30.09,NE,34,2.0,4.0,84,0.00,,,0.00,,2013-05-07 16:12:00,
2013-05-07 12:22:00,56.0,51.0,30.09,ENE,67,1.0,5.0,82,0.00,,,0.00,,2013-05-07 16:22:00,
2013-05-07 12:32:00,57.0,51.0,30.09,ENE,62,1.0,4.0,79,0.00,,,0.00,,2013-05-07 16:32:00,
2013-05-07 12:42:00,57.0,51.0,30.09,ENE,62,1.0,4.0,79,0.00,,,0.00,,2013-05-07 16:42:00,
2013-05-07 12:52:00,57.0,51.0,30.09,ENE,62,1.0,4.0,79,0.00,,,0.00,,2013-05-07 16:52:00,
2013-05-07 13:01:00,58.0,50.0,30.08,SSW,202,2.0,5.0,76,0.00,,,0.00,,2013-05-07 17:01:00,
2013-05-07 13:12:00,58.0,50.0,30.08,SSW,202,2.0,5.0,76,0.00,,,0.00,,2013-05-07 17:12:00,
2013-05-07 13:21:00,59.0,51.0,30.08,East,92,1.0,7.0,74,0.00,,,0.00,,2013-05-07 17:21:00,
2013-05-07 13:32:00,59.0,51.0,30.08,East,92,1.0,7.0,74,0.00,,,0.00,,2013-05-07 17:32:00,
2013-05-07 13:41:00,59.0,51.0,30.08,East,92,1.0,7.0,74,0.00,,,0.00,,2013-05-07 17:41:00,
2013-05-07 13:53:00,61.0,52.0,30.07,ENE,74,1.0,7.0,73,0.00,,,0.00,,2013-05-07 17:53:00,
2013-05-07 14:01:00,61.0,52.0,30.07,East,84,2.0,8.0,71,0.00,,,0.00,,2013-05-07 18:01:00,
2013-05-07 14:11:00,61.0,52.0,30.07,East,84,2.0,8.0,71,0.00,,,0.00,,2013-05-07 18:11:00,
2013-05-07 14:21:00,57.0,50.0,30.08,NNE,13,2.0,9.0,76,0.00,,,0.00,,2013-05-07 18:21:00,
2013-05-07 14:31:00,57.0,50.0,30.07,South,169,2.0,7.0,78,0.00,,,0.00,,2013-05-07 18:31:00,
2013-05-07 14:42:00,57.0,50.0,30.07,South,169,2.0,7.0,78,0.00,,,0.00,,2013-05-07 18:42:00,
2013-05-07 14:52:00,60.0,52.0,30.06,NW,322,0.0,7.0,75,0.00,,,0.00,,2013-05-07 18:52:00,
2013-05-07 15:02:00,60.0,51.0,30.06,ENE,59,1.0,5.0,71,0.00,,,0.00,,2013-05-07 19:02:00,
2013-05-07 15:11:00,60.0,51.0,30.06,ENE,59,1.0,5.0,71,0.00,,,0.00,,2013-05-07 19:11:00,
2013-05-07 15:21:00,61.0,52.0,30.06,WNW,297,1.0,5.0,72,0.00,,,0.00,,2013-05-07 19:21:00,
2013-05-07 15:32:00,64.0,52.0,30.05,NNW,348,2.0,9.0,64,0.00,,,0.00,,2013-05-07 19:32:00,
2013-05-07 15:42:00,64.0,52.0,30.05,NNW,348,2.0,9.0,64,0.00,,,0.00,,2013-05-07 19:42:00,
2013-05-07 15:52:00,64.0,53.0,30.05,South,184,0.0,11.0,67,0.00,,,0.00,,2013-05-07 19:52:00,
2013-05-07 16:02:00,62.0,51.0,30.05,East,101,1.0,5.0,67,0.00,,,0.00,,2013-05-07 20:02:00,
2013-05-07 16:12:00,62.0,51.0,30.05,East,101,1.0,5.0,67,0.00,,,0.00,,2013-05-07 20:12:00,
2013-05-07 16:22:00,60.0,50.0,30.05,East,99,2.0,6.0,69,0.00,,,0.00,,2013-05-07 20:22:00,
2013-05-07 16:32:00,59.0,50.0,30.05,East,80,1.0,5.0,71,0.00,,,0.00,,2013-05-07 20:32:00,
2013-05-07 16:42:00,59.0,50.0,30.05,East,80,1.0,5.0,71,0.00,,,0.00,,2013-05-07 20:42:00,
2013-05-07 16:52:00,59.0,50.0,30.05,ENE,59,1.0,5.0,71,0.00,,,0.00,,2013-05-07 20:52:00,
2013-05-07 17:01:00,60.0,51.0,30.05,SE,124,0.0,7.0,71,0.00,,,0.00,,2013-05-07 21:01:00,
2013-05-07 17:11:00,60.0,51.0,30.05,SE,124,0.0,7.0,71,0.00,,,0.00,,2013-05-07 21:11:00,
2013-05-07 17:22:00,60.0,50.0,30.05,North,5,1.0,6.0,70,0.00,,,0.00,,2013-05-07 21:22:00,
2013-05-07 17:33:00,60.0,50.0,30.04,East,92,0.0,5.0,69,0.00,,,0.00,,2013-05-07 21:33:00,
2013-05-07 17:42:00,60.0,50.0,30.04,East,92,0.0,5.0,69,0.00,,,0.00,,2013-05-07 21:42:00,
2013-05-07 17:53:00,60.0,50.0,30.04,ESE,103,0.0,5.0,69,0.00,,,0.00,,2013-05-07 21:53:00,
2013-05-07 18:02:00,59.0,50.0,30.04,NE,48,0.0,7.0,73,0.00,,,0.00,,2013-05-07 22:02:00,
2013-05-07 18:13:00,59.0,50.0,30.04,NE,48,0.0,7.0,73,0.00,,,0.00,,2013-05-07 22:13:00,
2013-05-07 18:22:00,59.0,50.0,30.04,East,80,1.0,10.0,72,0.00,,,0.00,,2013-05-07 22:22:00,
2013-05-07 18:33:00,59.0,50.0,30.05,ENE,67,0.0,4.0,73,0.00,,,0.00,,2013-05-07 22:33:00,
2013-05-07 18:42:00,59.0,50.0,30.05,ENE,67,0.0,4.0,73,0.00,,,0.00,,2013-05-07 22:42:00,
2013-05-07 18:52:00,56.0,48.0,30.05,ENE,59,0.0,4.0,75,0.00,,,0.00,,2013-05-07 22:52:00,
2013-05-07 19:02:00,54.0,47.0,30.06,SSE,165,0.0,4.0,78,0.00,,,0.00,,2013-05-07 23:02:00,
2013-05-07 19:12:00,54.0,47.0,30.06,SSE,165,0.0,4.0,78,0.00,,,0.00,,2013-05-07 23:12:00,
2013-05-07 19:21:00,53.0,47.0,30.06,ENE,76,0.0,1.0,81,0.00,,,0.00,,2013-05-07 23:21:00,
2013-05-07 19:32:00,52.0,47.0,30.07,ESE,106,0.0,3.0,83,0.00,,,0.00,,2013-05-07 23:32:00,
2013-05-07 19:42:00,52.0,48.0,30.07,SSE,165,0.0,2.0,86,0.00,,,0.00,,2013-05-07 23:42:00,
2013-05-07 19:52:00,52.0,48.0,30.07,SSE,165,0.0,2.0,86,0.00,,,0.00,,2013-05-07 23:52:00,
2013-05-07 20:02:00,51.0,48.0,30.08,SW,228,0.0,2.0,90,0.00,,,0.00,,2013-05-08 00:02:00,
2013-05-07 20:12:00,51.0,48.0,30.08,SW,228,0.0,2.0,90,0.00,,,0.00,,2013-05-08 00:12:00,
2013-05-07 20:22:00,50.0,48.0,30.08,ESE,113,0.0,2.0,92,0.00,,,0.00,,2013-05-08 00:22:00,
2013-05-07 20:32:00,50.0,48.0,30.08,ESE,113,0.0,2.0,92,0.00,,,0.00,,2013-05-08 00:32:00,
2013-05-07 20:42:00,50.0,48.0,30.09,ESE,121,0.0,2.0,94,0.00,,,0.00,,2013-05-08 00:42:00,
2013-05-07 20:52:00,50.0,48.0,30.09,ESE,121,0.0,2.0,94,0.00,,,0.00,,2013-05-08 00:52:00,
2013-05-07 21:02:00,50.0,49.0,30.09,ESE,105,0.0,3.0,95,0.00,,,0.00,,2013-05-08 01:02:00,
2013-05-07 21:11:00,50.0,49.0,30.09,ESE,105,0.0,3.0,95,0.00,,,0.00,,2013-05-08 01:11:00,
2013-05-07 21:22:00,50.0,49.0,30.10,SE,130,0.0,1.0,96,0.00,,,0.00,,2013-05-08 01:22:00,
2013-05-07 21:32:00,49.0,48.0,30.10,NE,40,0.0,2.0,95,0.00,,,0.00,,2013-05-08 01:32:00,
2013-05-07 21:42:00,49.0,48.0,30.10,NE,40,0.0,2.0,95,0.00,,,0.00,,2013-05-08 01:42:00,
2013-05-07 21:52:00,49.0,48.0,30.10,ESE,113,0.0,0.0,96,0.00,,,0.00,,2013-05-08 01:52:00,
2013-05-07 22:02:00,49.0,48.0,30.11,ESE,112,0.0,2.0,96,0.00,,,0.00,,2013-05-08 02:02:00,
2013-05-07 22:12:00,49.0,48.0,30.11,ESE,112,0.0,2.0,96,0.00,,,0.00,,2013-05-08 02:12:00,
2013-05-07 22:22:00,49.0,48.0,30.11,ESE,112,0.0,0.0,96,0.00,,,0.00,,2013-05-08 02:22:00,
2013-05-07 22:32:00,49.0,48.0,30.11,ESE,112,0.0,0.0,97,0.00,,,0.00,,2013-05-08 02:32:00,
2013-05-07 22:42:00,49.0,48.0,30.11,ESE,112,0.0,0.0,97,0.00,,,0.00,,2013-05-08 02:42:00,
2013-05-07 22:52:00,49.0,48.0,30.11,ESE,112,0.0,1.0,97,0.00,,,0.00,,2013-05-08 02:52:00,
2013-05-07 23:02:00,49.0,48.0,30.11,ESE,115,0.0,1.0,97,0.00,,,0.00,,2013-05-08 03:02:00,
2013-05-07 23:11:00,49.0,48.0,30.11,ESE,115,0.0,1.0,97,0.00,,,0.00,,2013-05-08 03:11:00,
2013-05-07 23:22:00,48.0,47.0,30.11,ESE,115,0.0,0.0,97,0.00,,,0.00,,2013-05-08 03:22:00,
2013-05-07 23:33:00,49.0,48.0,30.11,ESE,115,0.0,0.0,97,0.00,,,0.00,,2013-05-08 03:33:00,
2013-05-07 23:43:00,49.0,48.0,30.11,ESE,115,0.0,0.0,97,0.00,,,0.00,,2013-05-08 03:43:00,
2013-05-07 23:52:00,48.0,47.0,30.11,ESE,115,0.0,1.0,97,0.00,,,0.00,,2013-05-08 03:52:00,